When you browse on this site, cookies collect data to enhance your experience and personalize the content and advertising you see.
Visit our Privacy Policy to learn more. By continuing to use the site, you agree to this use of cookies and data.
  • In Spain
  • List of Countries
  • For 7 days
  • Water Temperature
  • Satellite Maps
  • Weather Map
  • Weather Widgets
  • user-avatar
    Login

    Hourly Weather Sequeira

    Today, 14 December, Friday

    Time Temperature Precipitation Wind Pressure Humidity
    00:00 +2°C° 0 mm 2 mps 689 mmHg 93%
    01:00 +2°C° 0 mm 2 mps 690 mmHg 93%
    02:00 +2°C° 0 mm 2 mps 690 mmHg 93%
    03:00 +2°C° 0 mm 2 mps 690 mmHg 93%
    04:00 +1°C° 0 mm 2 mps 690 mmHg 93%
    05:00 +1°C° 0 mm 2 mps 690 mmHg 94%
    06:00 +1°C° 0 mm 2 mps 691 mmHg 94%
    07:00 +2°C° 0 mm 2 mps 691 mmHg 93%
    08:00 +3°C° 0 mm 1 mps 691 mmHg 91%
    09:00 +4°C° 0 mm 1 mps 692 mmHg 90%
    10:00 +4°C° 0 mm 2 mps 692 mmHg 83%
    11:00 +6°C° 0 mm 2 mps 693 mmHg 77%
    12:00 +7°C° 0 mm 2 mps 693 mmHg 70%
    13:00 +8°C° 0 mm 2 mps 693 mmHg 70%
    14:00 +8°C° 0 mm 2 mps 693 mmHg 69%
    15:00 +8°C° 0 mm 2 mps 693 mmHg 69%
    16:00 +7°C° 0 mm 2 mps 693 mmHg 76%
    17:00 +7°C° 0 mm 1 mps 693 mmHg 83%
    18:00 +6°C° 0 mm 1 mps 693 mmHg 89%
    19:00 +5°C° 0 mm 1 mps 693 mmHg 91%
    20:00 +5°C° 0 mm 1 mps 693 mmHg 92%
    21:00 +5°C° 0 mm 1 mps 693 mmHg 93%
    22:00 +5°C° 0 mm 1 mps 693 mmHg 93%
    23:00 +5°C° 0 mm 1 mps 693 mmHg 93%

    Tomorrow, 15 December, Saturday

    Time Temperature Precipitation Wind Pressure Humidity
    00:00 +5°C° 0 mm 1 mps 693 mmHg 93%
    01:00 +5°C° 0.1 mm 1 mps 693 mmHg 93%
    02:00 +6°C° 0.1 mm 1 mps 694 mmHg 93%
    03:00 +5°C° 0.1 mm 2 mps 694 mmHg 93%
    04:00 +5°C° 0 mm 2 mps 693 mmHg 93%
    05:00 +5°C° 0 mm 2 mps 693 mmHg 94%
    06:00 +5°C° 0 mm 2 mps 693 mmHg 95%
    07:00 +5°C° 0 mm 2 mps 693 mmHg 94%
    08:00 +6°C° 0 mm 2 mps 693 mmHg 94%
    09:00 +6°C° 0 mm 2 mps 693 mmHg 93%
    10:00 +7°C° 0 mm 3 mps 693 mmHg 90%
    11:00 +7°C° 0 mm 4 mps 694 mmHg 87%
    12:00 +8°C° 0 mm 4 mps 694 mmHg 84%
    13:00 +8°C° 0 mm 4 mps 693 mmHg 84%
    14:00 +8°C° 0 mm 5 mps 693 mmHg 84%
    15:00 +8°C° 0 mm 5 mps 692 mmHg 85%
    16:00 +8°C° 0.1 mm 5 mps 692 mmHg 87%
    17:00 +7°C° 0.1 mm 4 mps 692 mmHg 90%
    18:00 +7°C° 0.1 mm 4 mps 691 mmHg 92%
    19:00 +7°C° 0.4 mm 4 mps 691 mmHg 92%
    20:00 +8°C° 0.4 mm 5 mps 691 mmHg 92%
    21:00 +8°C° 0.4 mm 5 mps 691 mmHg 92%
    22:00 +8°C° 1.8 mm 4 mps 691 mmHg 93%
    23:00 +8°C° 1.8 mm 4 mps 691 mmHg 94%

    Day after tomorrow, 16 December, Sunday

    Time Temperature Precipitation Wind Pressure Humidity
    00:00 +8°C° 1.8 mm 4 mps 691 mmHg 95%
    01:00 +9°C° 2.6 mm 3 mps 690 mmHg 96%
    02:00 +9°C° 2.6 mm 3 mps 690 mmHg 96%
    03:00 +9°C° 2.6 mm 3 mps 690 mmHg 96%
    04:00 +8°C° 2.7 mm 2 mps 689 mmHg 96%
    05:00 +8°C° 2.7 mm 2 mps 689 mmHg 96%
    06:00 +7°C° 2.7 mm 2 mps 689 mmHg 95%
    07:00 +7°C° 0.7 mm 2 mps 689 mmHg 95%
    08:00 +7°C° 0.7 mm 2 mps 689 mmHg 94%
    09:00 +7°C° 0.7 mm 2 mps 690 mmHg 93%
    10:00 +7°C° 0 mm 3 mps 690 mmHg 88%
    11:00 +7°C° 0 mm 4 mps 691 mmHg 83%
    12:00 +7°C° 0 mm 5 mps 691 mmHg 79%
    13:00 +7°C° 0.1 mm 4 mps 691 mmHg 80%
    14:00 +7°C° 0.1 mm 4 mps 691 mmHg 81%
    15:00 +7°C° 0.1 mm 4 mps 691 mmHg 82%
    16:00 +7°C° 0.1 mm 3 mps 691 mmHg 85%
    17:00 +6°C° 0.1 mm 2 mps 692 mmHg 88%
    18:00 +5°C° 0.1 mm 2 mps 692 mmHg 91%
    19:00 +5°C° 0 mm 1 mps 692 mmHg 92%
    20:00 +5°C° 0 mm 1 mps 693 mmHg 93%
    21:00 +4°C° 0 mm 1 mps 693 mmHg 93%
    22:00 +4°C° 0 mm 1 mps 693 mmHg 93%
    23:00 +3°C° 0 mm 1 mps 693 mmHg 94%

    17 December, Monday

    Time Temperature Precipitation Wind Pressure Humidity
    00:00 +3°C° 0 mm 1 mps 694 mmHg 94%
    01:00 +3°C° 0 mm 1 mps 693 mmHg 93%
    02:00 +3°C° 0 mm 1 mps 693 mmHg 93%
    03:00 +2°C° 0 mm 1 mps 693 mmHg 93%
    04:00 +2°C° 0 mm 1 mps 693 mmHg 92%
    05:00 +2°C° 0 mm 1 mps 693 mmHg 92%
    06:00 +1°C° 0 mm 0 mps 693 mmHg 92%
    07:00 +1°C° 0 mm 0 mps 694 mmHg 90%
    08:00 +2°C° 0 mm 0 mps 694 mmHg 88%
    09:00 +3°C° 0 mm 0 mps 695 mmHg 85%
    10:00 +5°C° 0 mm 1 mps 695 mmHg 79%
    11:00 +7°C° 0 mm 1 mps 695 mmHg 72%
    12:00 +8°C° 0 mm 1 mps 695 mmHg 66%
    13:00 +8°C° 0 mm 1 mps 695 mmHg 65%
    14:00 +9°C° 0 mm 1 mps 694 mmHg 64%
    15:00 +8°C° 0 mm 2 mps 694 mmHg 64%
    16:00 +6°C° 0 mm 2 mps 693 mmHg 71%
    17:00 +5°C° 0 mm 2 mps 693 mmHg 77%
    18:00 +3°C° 0 mm 2 mps 693 mmHg 84%
    19:00 +3°C° 0 mm 2 mps 693 mmHg 84%
    20:00 +3°C° 0 mm 2 mps 693 mmHg 84%
    21:00 +3°C° 0 mm 2 mps 693 mmHg 83%
    22:00 +3°C° 0 mm 2 mps 693 mmHg 83%
    23:00 +2°C° 0 mm 3 mps 692 mmHg 82%

    18 December, Tuesday

    Time Temperature Precipitation Wind Pressure Humidity
    00:00 +2°C° 0 mm 3 mps 692 mmHg 82%
    01:00 +2°C° 0 mm 3 mps 692 mmHg 81%
    02:00 +2°C° 0 mm 3 mps 691 mmHg 81%
    03:00 +2°C° 0 mm 3 mps 691 mmHg 81%
    04:00 +1°C° 0 mm 4 mps 690 mmHg 82%
    05:00 0°C° 0 mm 4 mps 690 mmHg 84%
    06:00 0°C° 0 mm 4 mps 690 mmHg 86%
    07:00 +1°C° 0.1 mm 4 mps 689 mmHg 85%
    08:00 +1°C° 0.1 mm 5 mps 689 mmHg 85%
    09:00 +2°C° 0.1 mm 5 mps 689 mmHg 85%
    10:00 +2°C° 0.8 mm 5 mps 689 mmHg 86%
    11:00 +3°C° 0.8 mm 6 mps 689 mmHg 87%
    12:00 +3°C° 0.8 mm 6 mps 688 mmHg 87%
    13:00 +3°C° 1.7 mm 5 mps 688 mmHg 90%
    14:00 +5°C° 1.7 mm 4 mps 688 mmHg 92%
    15:00 +5°C° 1.7 mm 4 mps 687 mmHg 94%
    16:00 +5°C° 2.6 mm 3 mps 688 mmHg 95%
    17:00 +6°C° 2.6 mm 2 mps 688 mmHg 96%
    18:00 +6°C° 2.6 mm 2 mps 688 mmHg 96%
    19:00 +6°C° 1 mm 2 mps 688 mmHg 96%
    20:00 +7°C° 1 mm 1 mps 689 mmHg 96%
    21:00 +7°C° 1 mm 1 mps 689 mmHg 96%
    22:00 +7°C° 0.3 mm 1 mps 689 mmHg 96%
    23:00 +7°C° 0.3 mm 1 mps 689 mmHg 97%

    19 December, Wednesday

    Time Temperature Precipitation Wind Pressure Humidity
    00:00 +7°C° 0.3 mm 1 mps 689 mmHg 97%
    01:00 +7°C° 0 mm 1 mps 689 mmHg 97%
    02:00 +6°C° 0 mm 1 mps 689 mmHg 97%
    03:00 +6°C° 0 mm 1 mps 689 mmHg 97%
    04:00 +5°C° 0 mm 1 mps 689 mmHg 96%
    05:00 +5°C° 0 mm 1 mps 689 mmHg 96%
    06:00 +4°C° 0 mm 1 mps 690 mmHg 96%
    07:00 +4°C° 0 mm 1 mps 690 mmHg 95%
    08:00 +4°C° 0 mm 1 mps 691 mmHg 94%
    09:00 +4°C° 0 mm 1 mps 691 mmHg 93%
    10:00 +6°C° 0 mm 1 mps 691 mmHg 87%
    11:00 +6°C° 0 mm 2 mps 692 mmHg 81%
    12:00 +8°C° 0 mm 2 mps 692 mmHg 75%
    13:00 +8°C° 0 mm 2 mps 692 mmHg 73%
    14:00 +8°C° 0 mm 2 mps 692 mmHg 72%
    15:00 +8°C° 0 mm 2 mps 692 mmHg 70%
    16:00 +6°C° 0 mm 2 mps 692 mmHg 76%
    17:00 +5°C° 0 mm 2 mps 692 mmHg 83%
    18:00 +5°C° 0 mm 1 mps 692 mmHg 89%
    19:00 +4°C° 0 mm 1 mps 692 mmHg 90%
    20:00 +4°C° 0 mm 1 mps 692 mmHg 91%
    21:00 +4°C° 0 mm 1 mps 692 mmHg 91%
    22:00 +4°C° 0 mm 1 mps 692 mmHg 91%
    23:00 +4°C° 0 mm 1 mps 692 mmHg 92%
    Show more